www.pogodaiklimat.ru
ПОГОДА в Аэропорту Фуаамоту
Время
(UTC), дата
00 21.01
03 21.01
06 21.01
12 21.01
15 21.01
18 21.01
21 21.01
00 22.01
03 22.01
06 22.01
12 22.01
15 22.01
18 22.01
21 22.01
00 23.01
03 23.01
06 23.01
12 23.01
15 23.01
18 23.01
21 23.01
00 24.01
03 24.01
06 24.01
12 24.01
15 24.01
18 24.01
21 24.01
00 25.01
03 25.01
06 25.01
12 25.01
15 25.01
18 25.01
21 25.01
00 26.01
03 26.01
06 26.01
12 26.01
15 26.01
18 26.01
21 26.01
00 27.01
03 27.01
06 27.01
12 27.01
15 27.01
18 27.01
21 27.01
Ветер
(напр.,м/с)
Видим. Явления Облачность Т
(С)
Тd
(С)
f
(%)
Тe
(С)
Тes
(С)
Комфортность P
(гПа)
Po
(гПа)
Тmin
(С)
Tmax
(С)
R
(мм)
R24
(мм)
S
(см)
С 6 20 км 9/4 540 м
[Cu med, cong Cs]
+30.4 +25.7 76 +45 +49 опасность
перегрева
1009.9 1005.6 +23.0
СЗ 4 20 км {ливн. дождь, дождь} 9/1 500 м
[Cu med, cong Ac trans]
+28.5 +25.8 85 +42 +45 опасность
перегрева
1008.9 1004.6
С 4 20 км 9/3 500 м
[Cu med, cong Ac trans Ci fib]
+28.2 +25.7 86 +42 +42 опасность
перегрева
1009.3 1005.0 7
ЮЗ 6 4000 м дождь 10/6 180 м
[Frnb Ac As]
+23.9 +23.6 98 +32 +32 очень
душно
1010.9 1006.5 +32.2 36
С 2 20 км слаб. дождь 10/5 240 м
[Frnb Ac As]
+23.8 +23.5 98 +32 +32 очень
душно
1009.9 1005.5
С 3 20 км {дождь} 9/3 500 м
[Cu med, cong Ac cast]
+24.6 +23.9 96 +34 +34 очень
душно
1011.1 1006.7 15
С 5 20 км 9/3 480 м
[Frnb Ac As]
+26.5 +24.5 89 +37 +39 очень
душно
1011.5 1007.1
С 6 20 км 9/5 480 м
[Frnb Ac As]
+28.3 +25.5 85 +42 +44 опасность
перегрева
1010.4 1006.1 +23.2 58 58.0
С 5 20 км 8/5 450 м
[Frnb Ac As]
+28.2 +25.8 87 +42 +44 опасность
перегрева
1009.8 1005.5
нст 1 20 км слаб. морось 9/4 300 м
[Cu med, cong Ac As]
+26.6 +25.6 94 +39 +39 очень
душно
1010.7 1006.3 0.8
С 4 1000 м сильн. дождь {ливн. дождь} 10/8 240 м
[Cu Sc Ac As]
+22.9 +22.3 96 +31 +31 очень
душно
1012.0 1007.6 +31.5 36
нст 1 20 км слаб. дождь 10/5 240 м
[Cu Sc Ac As]
+23.0 +22.7 98 +32 +32 очень
душно
1009.7 1005.3
СВ 4 20 км слаб. дождь 10/5 240 м
[Cu Sc Ac As]
+23.8 +23.7 99 +32 +32 очень
душно
1011.5 1007.1 8
С 2 20 км слаб. ливневой дождь 10/8 240 м
[Cu Sc Ac As]
+24.4 +24.0 98 +34 +34 очень
душно
1012.4 1008.0
С 4 20 км слаб. ливневой дождь 10/8 210 м
[Cu Sc Ac As]
+25.1 +24.4 96 +35 +36 очень
душно
1011.8 1007.4 +22.8 57 56.8
СЗ 6 20 км {морось} 9/5 480 м
[Frnb Ac As]
+27.9 +25.2 85 +40 +41 очень
душно
1010.1 1005.8
нст 1 20 км слаб. морось 9/3 480 м
[Cu med, cong Ac As]
+24.3 +23.9 98 +33 +33 очень
душно
1010.4 1006.0 5
С 3 20 км {морось} 9/5 240 м
[Frnb As trans]
+24.3 +23.7 96 +33 +33 очень
душно
1011.2 1006.8 +30.1 0.7
С 2 20 км 9/5 240 м
[Frnb As trans]
+24.2 +23.6 96 +33 +33 очень
душно
1009.2 1004.8
штиль 0 20 км 9/5 270 м
[Cu Sc Ac As Cs]
+23.8 +23.5 98 +32 +32 очень
душно
1010.4 1006.0
С 4 20 км 8/6 500 м
[Cu Sc Ac As]
+27.6 +25.5 88 +40 +43 очень
душно
1010.4 1006.0
СЗ 5 20 км 9/6 270 м
[Frnb Ac As]
+27.9 +25.1 85 +40 +43 очень
душно
1009.4 1005.1 +22.8 5 5.3
С 4 20 км {дождь} 9/5 480 м
[Cu med, cong Ac trans]
+27.6 +25.2 87 +40 +42 очень
душно
1007.7 1003.4
ЮЗ 2 20 км слаб. дождь 10/5 300 м
[Frnb As trans]
+26.6 +24.9 90 +38 +38 очень
душно
1007.9 1003.5 2
штиль 0 20 км {дождь} 9/6 270 м
[Frnb As trans]
+22.4 +21.8 96 +30 +30 очень
душно
1008.9 1004.5 +28.8 66
штиль 0 20 км 10/6 270 м
[Frnb As trans]
+22.3 +22.0 98 +30 +30 очень
душно
1006.4 1002.0
С 2 20 км 9/5 480 м
[Cu Sc As trans]
+23.0 +22.6 98 +32 +32 очень
душно
1007.3 1002.9
ЮВ 2 20 км 9/8 240 м
[Cu Sc Ac As]
+26.6 +23.1 81 +36 +37 очень
душно
1008.0 1003.6
ЮВ 3 20 км 9/8 300 м
[Cu Sc Ac As]
+27.5 +24.5 84 +39 +41 очень
душно
1007.3 1003.0 +23.6 67 67.4
ЮВ 6 20 км 8/8 240 м
[Cu Sc]
+26.3 +24.4 89 +37 +38 очень
душно
1005.9 1001.5
ЮВ 3 4000 м дождь 9/9 180 м
[Cu Sc]
+24.4 +24.0 98 +34 +34 очень
душно
1005.8 1001.4 10
СВ 2 20 км {дождь} 3/3 480 м
[Cu hum]
+23.6 +23.3 98 +32 +32 очень
душно
1006.5 1002.1 +28.7 4
СВ 2 20 км 6/1 480 м
[Cu hum Ci]
+23.6 +23.2 98 +32 +32 очень
душно
1004.9 1000.5
СВ 3 20 км 1/1 480 м
[Cu hum]
+24.1 +23.4 96 +32 +33 очень
душно
1006.0 1001.6
СВ 5 20 км 6/6 300 м
[Frnb]
+28.0 +25.3 85 +41 +44 опасность
перегрева
1006.9 1002.6
С 5 20 км 8/4 480 м
[Cu med, cong Ac trans]
+28.8 +25.1 80 +42 +46 опасность
перегрева
1006.1 1001.8 +22.0 15 14.8
СВ 4 20 км слаб. ливневой дождь 9/8 240 м
[Frnb As trans]
+24.3 +23.9 98 +33 +34 очень
душно
1006.1 1001.7
С 4 20 км 8/3 270 м
[Frnb As trans]
+24.9 +23.7 93 +34 +34 очень
душно
1006.2 1001.8 16
СВ 3 20 км в посл. час ливневой дождь 6/4 240 м
[Frnb As trans]
+24.5 +23.8 96 +33 +33 очень
душно
1007.3 1002.9 +29.5 2
СВ 5 20 км 9/4 480 м
[Cu med, cong As trans]
+24.5 +23.8 96 +33 +33 очень
душно
1005.8 1001.4
В 3 20 км {ливн. дождь} 9/3 480 м
[Cu med, cong As trans]
+24.7 +24.1 96 +34 +34 очень
душно
1006.5 1002.1 0.2
СВ 5 20 км 9/4 480 м
[Cu Sc Ac As]
+26.6 +24.0 86 +37 +39 очень
душно
1007.4 1003.0
СВ 5 20 км 9/4 240 м
[Frnb Ac As]
+27.9 +24.8 83 +40 +43 очень
душно
1007.3 1003.0 +23.4 19 18.8
С 5 20 км 9/5 480 м
[Cu Sc Ac As]
+27.2 +24.8 87 +39 +40 очень
душно
1006.3 1002.0
СВ 3 20 км {дождь} 9/3 240 м
[Cu Sc Ac As]
+24.9 +24.0 95 +34 +34 очень
душно
1007.0 1002.6 2
СВ 3 20 км слаб. дождь 10/6 300 м
[Cu Sc As trans]
+24.7 +23.5 93 +33 +33 очень
душно
1007.3 1002.9 +29.3 10
нст 1 20 км слаб. морось 10/6 270 м
[Frnb As trans]
+22.4 +22.0 98 +30 +30 очень
душно
1005.6 1001.2
В 5 20 км 10/5 270 м
[Frnb As trans]
+24.3 +23.4 95 +33 +33 очень
душно
1006.0 1001.6 4
СВ 4 4000 м слаб. дождь 10/6 270 м
[Frnb As trans]
+23.6 +23.2 98 +32 +33 очень
душно
1007.3 1002.9
Местоположение метеостанции Аэропорт Фуаамоту (Тонга): широта -21.24 долгота -175.15 высота над уровнем моря 38 м.
В архиве по умолчанию представлена погода в Аэропорту Фуаамоту за последнюю неделю. Архивные данные за месяц целиком и за предыдущие месяцы, начиная с января 2011 года, Вы можете получить, выбрав интересующий диапазон дат из раскрывающегося списка и нажав кнопку "Найти!".
*Определитесь, кто Вы:
Внимание! Время в таблицах - всемирное. Для получения местного времени необходимо прибавить поправку, которая равна -11 ч.
Смотрите также архив погоды в соседних городах и на ближайших метеорологических станциях:
Партнеры нашего сайта:      
Пояснения к столбцам:
  • Ветер - указаны скорость ветра в м/с - средняя за 10 мин, порывы в срок и между сроками (в фигурных скобках) и направление, откуда дует ветер: С - северный,
  • СВ - северо-восточный, В - восточный, ЮВ - юго-восточный, Ю - южный, ЮЗ - юго-западный, З - западный, СЗ - северо-западный.
  • Видимость - горизонтальная дальность видимости в метрах или километрах. При видимости от 1 до 10 км при отсутствии осадков обычно наблюдается дымка, при ухудшении видимости до 1 км и менее - туман. В сухую погоду видимость может ухудшаться дымом, пылью или мглою.
  • Явления - указаны атмосферные явления, наблюдавшиеся в срок или в последний час перед сроком; фигурными скобками обозначены явления, наблюдавшиеся между сроками (за 1-3 часа до срока); квадратными скобками обозначены град или гололедные отложения с указанием их диаметра в мм.
  • Облачность - указаны через наклонную черту общая и нижняя облачность в баллах и высота нижней границы облаков в метрах; квадратными скобками обозначены формы облаков: Ci - перистые, Cs - перисто-слоистые, Cc - перисто-кучевые, Ac - высококучевые, As - высокослоистые, Sc - слоисто-кучевые, Ns - слоисто-дождевые, Cu - кучевые, Cb - кучево-дождевые. Подробнее классификацию облаков см. в Атласе облаков (PDF).
  • T - Температура воздуха - температура, измеренная на высоте 2 м над землей.
  • Td - Температура точки росы - температура, при понижении до которой содержащийся в воздухе водяной пар достигнет насыщения.
  • f - Относительная влажность воздуха - влажноcть воздуха, измеренная на высоте 2 м над землей.
  • Te - Эффективная температура - температура, которую ощущает одетый по сезону человек в тени. Характеристика душности погоды. При расчете учитывается влияние влажности воздуха и скорости ветра на теплоощущения человека.
  • Tes - Эффективная температура на солнце - температура, которую ощущает человек, с поправкой на солнечный нагрев. Характеристика знойности погоды. Зависит от высоты солнца над горизонтом, облачности и скорости ветра. Ночью, в пасмурную погоду, а также при ветре 12 м/с и более поправка равна нулю.
  • P - Атмосферное давление - приведенное к уровню моря атмосферное давление.
  • Po - Атмосферное давление - измеренное на уровне метеостанции атмосферное давление.
  • Tmin - Минимальная температура - минимум температуры воздуха на высоте 2 м над землей.
  • Tmax - Максимальная температура - максимум температуры воздуха на высоте 2 м над землей.
  • R - Количество осадков - Количество выпавших осадков за период времени, мм. При наведении курсора мыши на число - период времени, за который выпало указанное количество осадков.
  • R24 - Количество осадков - Количество выпавших осадков за 24 часа, мм.
  • S - Снежный покров - Высота снежного покрова, см. При наведении курсора мыши на число - состояние снежного покрова и степень покрытия местности в баллах.